STARLINK-2297 (48032 NORAD) Tracking and Keplerian Element Data

This shows tracking and keplerian element data for the satellite.

Feedback or suggestion? Click here.




ElementValue
Catalog48032
NameSTARLINK-2297
Epoch Orbit198
Epoch Day170.58334491
Epoch Year2021
RAAN130.8103
Inclination53.0484
Eccentricity0.0002261
Argument of Perigee28.0834
Mean Anonmoly332.7095
Mean Motion15.72888795
Decay Rate0.00515897
L11 48032U 21024BH 21170.58334491 .00515897 00000-0 35048-2 0 9991
L22 48032 53.0484 130.8103 0002261 28.0834 332.7095 15.72888795 1982

Live tracking and technical data element details for STARLINK-2297 (NORAD 48032). STARLINK-2297 can be tracked NOW for your location showing map with azimuth and elevation plus other details from your city location.

Track the satellite on the map from your city or location and see movement details for azimuth, elevation, latitude, longitude, range, height, and movement on the map or in text.







IsCatalogInMostPopularTable: catalog: 48032, numindb: 39
Update: records affected: 1



GetName: 48032 STARLINK-2297

Hit Count: updated at: Mon, 21 Jun 2021 03:20:30 GMT